Tracking 23726 objects as of 25-Sep-2021
HD Live streaming from Space Station
objects crossing your sky now

OPS 3151

Track OPS 3151 now!
OPS 3151 is classified as:


NORAD ID: 9803
Int'l Code: 1977-007A
Perigee: 36,233.3 km
Apogee: 36,926.3 km
Inclination: 9.1 °
Period: 1,476.4 minutes
Semi major axis: 42950 km
RCS: Unknown
Launch date: February 6, 1977
Source: United States (US)
Launch site: AIR FORCE EASTERN TEST RANGE (AFETR)
aabbcc
Your satellite tracking list
Your tracking list is empty




NASA's NSSDC Master Catalog

Two Line Element Set (TLE):
1 09803U 77007A   21267.86012954 -.00000169  00000-0  00000-0 0  9991
2 09803   9.0696 301.7500 0080678 355.0808 190.7307  0.97531758  7814
Source of the keplerian elements: McCants